Time,TemperatureF,DewpointF,PressureIn,WindDirection,WindDirectionDegrees,WindSpeedMPH,WindSpeedGustMPH,Humidity,HourlyPrecipIn,Conditions,Clouds,dailyrainin,SoftwareType,DateUTC
2013-07-29 00:00:00,53.0,50.0,-100.00,WSW,255,5.0,-999.0,90,0.00,,,-99.99,,2013-07-29 07:00:00,
2013-07-29 00:23:00,53.0,50.0,-100.00,WSW,255,5.0,-999.0,90,0.00,,,-99.99,,2013-07-29 07:23:00,
2013-07-29 00:33:00,53.0,50.0,-100.00,WSW,255,5.0,-999.0,90,0.00,,,-99.99,,2013-07-29 07:33:00,
2013-07-29 00:53:00,53.0,50.0,-100.00,WSW,255,5.0,-999.0,90,0.00,,,-99.99,,2013-07-29 07:53:00,
2013-07-29 01:00:00,53.0,50.0,-100.00,WSW,242,8.0,-999.0,90,0.00,,,-99.99,,2013-07-29 08:00:00,
2013-07-29 01:33:00,53.0,50.0,-100.00,WSW,242,8.0,-999.0,90,0.00,,,-99.99,,2013-07-29 08:33:00,
2013-07-29 01:42:00,53.0,50.0,-100.00,WSW,242,8.0,-999.0,90,0.00,,,-99.99,,2013-07-29 08:42:00,
2013-07-29 01:52:00,53.0,50.0,-100.00,WSW,242,8.0,-999.0,90,0.00,,,-99.99,,2013-07-29 08:52:00,
2013-07-29 02:00:00,53.0,50.0,-100.00,SW,220,1.0,-999.0,89,0.00,,,-99.99,,2013-07-29 09:00:00,
2013-07-29 02:33:00,53.0,50.0,-100.00,SW,220,1.0,-999.0,89,0.00,,,-99.99,,2013-07-29 09:33:00,
2013-07-29 02:53:00,53.0,50.0,-100.00,SW,220,1.0,-999.0,89,0.00,,,-99.99,,2013-07-29 09:53:00,
2013-07-29 03:00:00,53.0,50.0,-100.00,ESE,112,3.0,-999.0,89,0.00,,,-99.99,,2013-07-29 10:00:00,
2013-07-29 03:38:00,53.0,50.0,-100.00,ESE,112,3.0,-999.0,89,0.00,,,-99.99,,2013-07-29 10:38:00,
2013-07-29 03:55:00,53.0,50.0,-100.00,ESE,112,3.0,-999.0,89,0.00,,,-99.99,,2013-07-29 10:55:00,
2013-07-29 04:00:00,53.0,50.0,-100.00,SSW,208,4.0,-999.0,89,0.00,,,-99.99,,2013-07-29 11:00:00,
2013-07-29 04:38:00,53.0,50.0,-100.00,SSW,208,4.0,-999.0,89,0.00,,,-99.99,,2013-07-29 11:38:00,
2013-07-29 04:57:00,53.0,50.0,-100.00,SSW,208,4.0,-999.0,89,0.00,,,-99.99,,2013-07-29 11:57:00,
2013-07-29 05:37:00,53.0,50.0,-100.00,South,171,1.0,-999.0,88,0.00,,,-99.99,,2013-07-29 12:37:00,
2013-07-29 05:55:00,53.0,50.0,-100.00,South,171,1.0,-999.0,88,0.00,,,-99.99,,2013-07-29 12:55:00,
2013-07-29 06:00:00,54.0,50.0,-100.00,NE,49,2.0,-999.0,87,0.00,,,-99.99,,2013-07-29 13:00:00,
2013-07-29 06:38:00,54.0,50.0,-100.00,NE,49,2.0,-999.0,87,0.00,,,-99.99,,2013-07-29 13:38:00,
2013-07-29 06:45:00,54.0,50.0,-100.00,NE,49,2.0,-999.0,87,0.00,,,-99.99,,2013-07-29 13:45:00,
2013-07-29 06:55:00,54.0,50.0,-100.00,NE,49,2.0,-999.0,87,0.00,,,-99.99,,2013-07-29 13:55:00,
2013-07-29 07:00:00,54.0,50.0,-100.00,SW,230,4.0,-999.0,87,0.00,,,-99.99,,2013-07-29 14:00:00,
2013-07-29 07:37:00,54.0,50.0,-100.00,SW,230,4.0,-999.0,87,0.00,,,-99.99,,2013-07-29 14:37:00,
2013-07-29 08:00:00,55.0,51.0,-100.00,SSW,200,2.0,-999.0,86,0.00,,,-99.99,,2013-07-29 15:00:00,
2013-07-29 08:38:00,55.0,51.0,-100.00,SSW,200,2.0,-999.0,86,0.00,,,-99.99,,2013-07-29 15:38:00,
2013-07-29 08:55:00,55.0,51.0,-100.00,SSW,200,2.0,-999.0,86,0.00,,,-99.99,,2013-07-29 15:55:00,
2013-07-29 09:00:00,56.0,51.0,-100.00,South,183,3.0,-999.0,83,0.00,,,-99.99,,2013-07-29 16:00:00,
2013-07-29 09:40:00,56.0,51.0,-100.00,South,183,3.0,-999.0,83,0.00,,,-99.99,,2013-07-29 16:40:00,
2013-07-29 09:47:00,56.0,51.0,-100.00,South,183,3.0,-999.0,83,0.00,,,-99.99,,2013-07-29 16:47:00,
2013-07-29 09:57:00,56.0,51.0,-100.00,South,183,3.0,-999.0,83,0.00,,,-99.99,,2013-07-29 16:57:00,
2013-07-29 10:42:00,56.0,51.0,-100.00,SSW,192,8.0,-999.0,82,0.00,,,-99.99,,2013-07-29 17:42:00,
2013-07-29 10:58:00,56.0,51.0,-100.00,SSW,192,8.0,-999.0,82,0.00,,,-99.99,,2013-07-29 17:58:00,
2013-07-29 11:00:00,59.0,51.0,-100.00,SSW,195,9.0,-999.0,75,0.00,,,-99.99,,2013-07-29 18:00:00,
2013-07-29 11:47:00,59.0,51.0,-100.00,SSW,195,9.0,-999.0,75,0.00,,,-99.99,,2013-07-29 18:47:00,
2013-07-29 11:57:00,59.0,51.0,-100.00,SSW,195,9.0,-999.0,75,0.00,,,-99.99,,2013-07-29 18:57:00,
2013-07-29 12:00:00,60.0,52.0,-100.00,South,188,4.0,-999.0,74,0.00,,,-99.99,,2013-07-29 19:00:00,
2013-07-29 13:00:00,62.0,51.0,-100.00,SSW,202,4.0,-999.0,67,0.00,,,-99.99,,2013-07-29 20:00:00,
2013-07-29 13:38:00,62.0,51.0,-100.00,SSW,202,4.0,-999.0,67,0.00,,,-99.99,,2013-07-29 20:38:00,
2013-07-29 13:58:00,62.0,51.0,-100.00,SSW,202,4.0,-999.0,67,0.00,,,-99.99,,2013-07-29 20:58:00,
2013-07-29 14:00:00,67.0,51.0,-100.00,North,3,5.0,-999.0,56,0.00,,,-99.99,,2013-07-29 21:00:00,
2013-07-29 14:37:00,67.0,51.0,-100.00,North,3,5.0,-999.0,56,0.00,,,-99.99,,2013-07-29 21:37:00,
2013-07-29 14:49:00,67.0,51.0,-100.00,North,3,5.0,-999.0,56,0.00,,,-99.99,,2013-07-29 21:49:00,
2013-07-29 15:38:00,69.0,52.0,-100.00,WSW,256,9.0,-999.0,53,0.00,,,-99.99,,2013-07-29 22:38:00,
2013-07-29 15:55:00,69.0,52.0,-100.00,WSW,256,9.0,-999.0,53,0.00,,,-99.99,,2013-07-29 22:55:00,
2013-07-29 16:35:00,67.0,52.0,-100.00,SW,230,9.0,-999.0,57,0.00,,,-99.99,,2013-07-29 23:35:00,
2013-07-29 16:46:00,67.0,52.0,-100.00,SW,230,9.0,-999.0,57,0.00,,,-99.99,,2013-07-29 23:46:00,
2013-07-29 16:55:00,67.0,52.0,-100.00,SW,230,9.0,-999.0,57,0.00,,,-99.99,,2013-07-29 23:55:00,
2013-07-29 17:00:00,65.0,52.0,-100.00,SW,220,11.0,-999.0,61,0.00,,,-99.99,,2013-07-30 00:00:00,
2013-07-29 17:55:00,65.0,52.0,-100.00,SW,220,11.0,-999.0,61,0.00,,,-99.99,,2013-07-30 00:55:00,
2013-07-29 18:00:00,60.0,52.0,-100.00,SW,232,17.0,-999.0,75,0.00,,,-99.99,,2013-07-30 01:00:00,
2013-07-29 18:38:00,60.0,52.0,-100.00,SW,232,17.0,-999.0,75,0.00,,,-99.99,,2013-07-30 01:38:00,
2013-07-29 18:46:00,60.0,52.0,-100.00,SW,232,17.0,-999.0,75,0.00,,,-99.99,,2013-07-30 01:46:00,
2013-07-29 18:58:00,60.0,52.0,-100.00,SW,232,17.0,-999.0,75,0.00,,,-99.99,,2013-07-30 01:58:00,
2013-07-29 19:00:00,57.0,51.0,-100.00,SW,234,11.0,-999.0,80,0.00,,,-99.99,,2013-07-30 02:00:00,
2013-07-29 19:38:00,57.0,51.0,-100.00,SW,234,11.0,-999.0,80,0.00,,,-99.99,,2013-07-30 02:38:00,
2013-07-29 19:46:00,57.0,51.0,-100.00,SW,234,11.0,-999.0,80,0.00,,,-99.99,,2013-07-30 02:46:00,
2013-07-29 19:55:00,57.0,51.0,-100.00,SW,234,11.0,-999.0,80,0.00,,,-99.99,,2013-07-30 02:55:00,
2013-07-29 20:00:00,56.0,51.0,-100.00,SW,227,9.0,-999.0,82,0.00,,,-99.99,,2013-07-30 03:00:00,
2013-07-29 20:36:00,56.0,51.0,-100.00,SW,227,9.0,-999.0,82,0.00,,,-99.99,,2013-07-30 03:36:00,
2013-07-29 20:54:00,56.0,51.0,-100.00,SW,227,9.0,-999.0,82,0.00,,,-99.99,,2013-07-30 03:54:00,
2013-07-29 21:00:00,55.0,51.0,-100.00,WSW,247,9.0,-999.0,86,0.00,,,-99.99,,2013-07-30 04:00:00,
2013-07-29 21:33:00,55.0,51.0,-100.00,WSW,247,9.0,-999.0,86,0.00,,,-99.99,,2013-07-30 04:33:00,
2013-07-29 21:53:00,55.0,51.0,-100.00,WSW,247,9.0,-999.0,86,0.00,,,-99.99,,2013-07-30 04:53:00,
2013-07-29 22:00:00,54.0,51.0,-100.00,WSW,242,12.0,-999.0,87,0.00,,,-99.99,,2013-07-30 05:00:00,
2013-07-29 22:33:00,54.0,51.0,-100.00,WSW,242,12.0,-999.0,87,0.00,,,-99.99,,2013-07-30 05:33:00,
2013-07-29 22:52:00,54.0,51.0,-100.00,WSW,242,12.0,-999.0,87,0.00,,,-99.99,,2013-07-30 05:52:00,
2013-07-29 23:00:00,54.0,51.0,-100.00,WSW,240,9.0,-999.0,89,0.00,,,-99.99,,2013-07-30 06:00:00,
2013-07-29 23:33:00,54.0,51.0,-100.00,WSW,240,9.0,-999.0,89,0.00,,,-99.99,,2013-07-30 06:33:00,
2013-07-29 23:43:00,54.0,51.0,-100.00,WSW,240,9.0,-999.0,89,0.00,,,-99.99,,2013-07-30 06:43:00,
2013-07-29 23:53:00,54.0,51.0,-100.00,WSW,240,9.0,-999.0,89,0.00,,,-99.99,,2013-07-30 06:53:00,